Flag for U.S.A. Weather past 2 weeks in Gloucester, Massachusetts, U.S.A.

Now
68 °F

Overcast.


Feels Like: 68 °F
Forecast: 62 / 69 °F
Wind: No wind

Location: Beverly Municipal Airport

Current Time: Aug 1, 2014 at 9:20:37 PM

Latest Report: Aug 1, 2014 at 8:53 PM


Visibility: 7 mi

Pressure: 30.19 "Hg

Humidity: 90%

Dew point: 65 °F

Location of GloucesterLocation

Historic Weather in Gloucester — Graph

°F

Gloucester temperature yesterday

Maximum temperature yesterday: 79 °F (at 5:53 PM)
Minimum temperature yesterday: 56 °F (at 3:53 AM)
Average temperature yesterday: 69 °F

Past Weeks' High & Low Weather Summary

 TemperatureHumidityPressure
High90 °F (Jul 23, 3:53 PM)97% (Jul 21, 1:53 AM)30.25 "Hg (Jul 21, 1:53 AM)
Low55 °F (Jul 25, 5:53 AM)39% (Jul 26, 3:53 PM)29.41 "Hg (Jul 28, 5:53 PM)
Average70 °F73%29.96 "Hg
* Reported Jul 17 7:53 PM — Aug 1 7:53 PM, Gloucester, Weather by CustomWeather, © 2014

Note: Actual official high and low records may vary slightly from our data, if they occured in-between our weather recording intervals... More about our weather records

Advertising

Gloucester weather history for previous 24 hours

 ConditionsComfort  
Time TempWeatherWind HumidityBarometerVisibility
7:53 PM
Aug 1
69 °FOvercast.3 mph84%30.20 "Hg10 mi
6:53 PM71 °FLight rain. Broken clouds.No wind84%30.20 "Hg6 mi
5:53 PM73 °FMostly cloudy.3 mph76%30.18 "Hg10 mi
4:53 PM74 °FScattered clouds.6 mph76%30.16 "Hg10 mi
3:53 PM79 °FSunny.9 mph67%30.16 "Hg10 mi
2:53 PM77 °FPassing clouds.10 mph71%30.17 "Hg10 mi
1:53 PM77 °FPartly sunny.13 mph71%30.19 "Hg10 mi
12:53 PM76 °FPartly sunny.9 mph69%30.19 "Hg9 mi
11:53 AM78 °FPartly sunny.9 mph66%30.19 "Hg10 mi
10:53 AM79 °FPartly sunny.No wind62%30.19 "Hg10 mi
9:53 AM76 °FPartly sunny.6 mph69%30.19 "Hg10 mi
8:53 AM73 °FPartly sunny.5 mph76%30.19 "Hg9 mi
7:53 AM70 °FSunny.5 mph81%30.19 "Hg8 mi
6:53 AM67 °FFog.6 mph87%30.18 "Hg6 mi
5:53 AM64 °FPassing clouds.3 mph90%30.16 "Hg7 mi
4:53 AM63 °FClear.5 mph90%30.16 "Hg10 mi
3:53 AM64 °FClear.6 mph87%30.15 "Hg10 mi
2:53 AM65 °FClear.No wind85%30.15 "Hg10 mi
1:53 AM66 °FClear.6 mph81%30.14 "Hg10 mi
12:53 AM66 °FClear.6 mph78%30.14 "Hg10 mi
11:53 PM
Jul 31
68 °FClear.5 mph73%30.14 "Hg10 mi
10:53 PM69 °FClear.6 mph66%30.14 "Hg10 mi
9:53 PM71 °FOvercast.6 mph61%30.13 "Hg10 mi
Weather by CustomWeather, © 2014

See weather overviewHow to use our weather pages